CQ0XBF-11 Weather Reports


time (UTC)temp
C
wind
direction
speed
KPH
gust
KPH
rain 1hr
cm
rain 24hr
cm
rain mn
cm
humidity
%
barometer
mb
20180421191151 16 81 3.2 9.7 0.00 0.00 1.50 86 1011.0
20180421190950 16 111 3.2 9.7 0.00 0.00 1.50 86 1010.9
20180421190748 16 132 1.6 11.3 0.00 0.00 1.50 86 1010.8
20180421190546 16 123 6.4 11.3 0.00 0.00 1.50 86 1010.8
20180421190345 16 43 1.6 9.7 0.00 0.00 1.50 86 1010.7
20180421190143 16 92 4.8 9.7 0.00 0.00 1.50 86 1010.7
20180421185941 17 92 3.2 9.7 0.00 0.00 1.50 87 1010.7
20180421185740 17 98 4.8 9.7 0.00 0.00 1.50 86 1010.6
20180421185538 17 97 4.8 9.7 0.00 0.00 1.50 87 1010.7
20180421185337 17 111 3.2 8.0 0.00 0.00 1.50 87 1010.7
20180421184934 16 85 4.8 8.0 0.00 0.00 1.50 87 1010.7
20180421184732 16 104 4.8 6.4 0.00 0.00 1.50 88 1010.7
20180421184531 17 129 0.0 6.4 0.00 0.00 1.50 88 1010.8
20180421184329 17 112 3.2 8.0 0.00 0.00 1.50 88 1010.8
20180421184128 17 109 3.2 8.0 0.00 0.00 1.50 88 1010.8
20180421183926 17 106 3.2 8.0 0.00 0.00 1.50 87 1010.8
20180421183725 17 95 3.2 6.4 0.00 0.00 1.50 87 1010.8
20180421183523 17 84 3.2 6.4 0.00 0.00 1.50 88 1010.8
20180421183321 17 139 4.8 8.0 0.00 0.00 1.50 87 1010.8
20180421183120 17 133 1.6 8.0 0.00 0.00 1.50 87 1010.7
20180421182918 17 149 1.6 8.0 0.00 0.00 1.50 87 1010.7
20180421182717 17 92 0.0 11.3 0.00 0.00 1.50 87 1010.8
20180421182515 17 150 3.2 11.3 0.00 0.00 1.50 87 1010.8
20180421182313 17 137 3.2 9.7 0.00 0.00 1.50 87 1010.7
20180421182112 17 344 1.6 9.7 0.00 0.00 1.50 87 1010.8
20180421181910 17 61 6.4 9.7 0.00 0.00 1.50 87 1010.8
20180421181709 17 60 8.0 14.5 0.00 0.00 1.50 87 1010.6
20180421181507 17 56 3.2 14.5 0.00 0.00 1.50 87 1010.7
20180421181306 17 130 8.0 12.9 0.00 0.00 1.50 88 1010.7
20180421181104 17 1 1.6 12.9 0.00 0.00 1.50 88 1010.7
20180421180903 17 140 6.4 12.9 0.00 0.00 1.50 88 1010.6
20180421180701 17 95 11.3 12.9 0.00 0.00 1.50 88 1010.7
20180421180500 17 137 3.2 12.9 0.00 0.00 1.50 89 1010.7
20180421180258 17 87 6.4 12.9 0.00 0.00 1.50 89 1010.7
20180421180057 17 67 6.4 12.9 0.00 0.00 1.50 89 1010.7
20180421175855 17 130 6.4 12.9 0.00 0.00 1.50 90 1010.7
20180421175653 16 160 12.9 12.9 0.00 0.00 1.50 90 1010.7
20180421175452 17 104 6.4 12.9 0.00 0.00 1.50 90 1010.6
20180421175250 17 125 6.4 17.7 0.00 0.00 1.50 90 1010.6
20180421175048 17 133 6.4 17.7 0.00 0.00 1.50 90 1010.6
20180421174847 17 135 6.4 17.7 0.00 0.00 1.50 89 1010.5
20180421174645 17 108 4.8 9.7 0.00 0.00 1.50 89 1010.5
20180421174444 17 150 8.0 9.7 0.00 0.00 1.50 89 1010.6
20180421174242 17 123 1.6 11.3 0.00 0.00 1.50 88 1010.6
20180421174041 17 137 4.8 11.3 0.00 0.00 1.50 88 1010.6
20180421173839 17 170 3.2 11.3 0.00 0.00 1.50 87 1010.6
20180421173638 17 122 1.6 11.3 0.00 0.00 1.50 86 1010.6
20180421173436 17 25 1.6 11.3 0.00 0.00 1.50 85 1010.7
20180421173235 17 97 8.0 14.5 0.00 0.00 1.47 85 1010.7
20180421173033 17 115 4.8 14.5 0.00 0.00 1.47 84 1010.6
20180421172832 17 92 8.0 14.5 0.00 0.00 1.47 82 1010.7
20180421172630 18 122 8.0 14.5 0.00 0.00 1.47 81 1010.7
20180421172428 18 151 11.3 14.5 0.00 0.00 1.47 80 1010.6
20180421172227 18 120 8.0 12.9 0.00 0.00 1.47 80 1010.6
20180421172025 18 85 0.0 12.9 0.00 0.00 1.47 79 1010.5
20180421171823 18 81 4.8 11.3 0.00 0.00 1.47 78 1010.6
20180421171622 18 147 3.2 11.3 0.00 0.00 1.47 77 1010.6
20180421171420 18 132 4.8 11.3 0.00 0.00 1.47 76 1010.6
20180421171017 18 104 0.0 3.2 0.00 0.00 1.47 75 1010.6
20180421170816 18 74 0.0 9.7 0.00 0.00 1.47 75 1010.6
20180421170614 18 49 0.0 9.7 0.00 0.00 1.47 75 1010.6
20180421170413 18 92 0.0 9.7 0.00 0.00 1.47 74 1010.6
20180421170211 18 170 3.2 11.3 0.00 0.00 1.47 74 1010.5
20180421170010 19 146 3.2 11.3 0.00 0.00 1.47 74 1010.5
20180421165808 18 165 3.2 6.4 0.00 0.00 1.47 73 1010.5
20180421165607 19 111 3.2 6.4 0.00 0.00 1.47 74 1010.5
20180421165405 19 184 3.2 6.4 0.00 0.00 1.47 74 1010.4
20180421165203 19 160 4.8 8.0 0.00 0.00 1.47 73 1010.5
20180421165002 18 87 0.0 8.0 0.00 0.00 1.47 73 1010.4
20180421164800 19 182 4.8 8.0 0.00 0.00 1.47 73 1010.4
20180421164559 19 161 1.6 8.0 0.00 0.00 1.47 73 1010.4
20180421164357 19 144 1.6 8.0 0.00 0.00 1.47 74 1010.4
20180421164155 19 151 3.2 9.7 0.00 0.00 1.47 74 1010.4
20180421163954 19 143 8.0 9.7 0.00 0.00 1.47 74 1010.3
20180421163752 18 154 6.4 14.5 0.00 0.00 1.47 74 1010.4
20180421163551 18 147 3.2 14.5 0.00 0.00 1.47 74 1010.4
20180421163349 18 126 6.4 14.5 0.00 0.00 1.47 74 1010.4
20180421163148 19 142 12.9 11.3 0.00 0.00 1.47 74 1010.4
20180421162946 18 168 6.4 11.3 0.00 0.00 1.47 74 1010.4
20180421162745 18 106 4.8 11.3 0.00 0.00 1.47 74 1010.3
20180421162543 18 164 4.8 11.3 0.00 0.00 1.47 74 1010.4
20180421162342 19 158 3.2 11.3 0.00 0.00 1.47 73 1010.4
20180421162140 18 156 9.7 11.3 0.00 0.00 1.47 73 1010.3
20180421161939 18 160 9.7 11.3 0.00 0.00 1.47 73 1010.4
20180421161737 18 164 6.4 14.5 0.00 0.00 1.47 74 1010.4
20180421161536 18 144 4.8 14.5 0.00 0.00 1.47 73 1010.4
20180421161132 19 165 6.4 12.9 0.00 0.00 1.47 73 1010.3
20180421160931 19 108 6.4 12.9 0.00 0.00 1.47 73 1010.4
20180421160729 18 157 4.8 14.5 0.00 0.00 1.47 73 1010.4
20180421160529 18 157 4.8 14.5 0.00 0.00 1.47 73 1010.3
20180421160326 18 156 3.2 22.5 0.00 0.00 1.47 72 1010.3
20180421160124 18 146 6.4 22.5 0.00 0.00 1.47 72 1010.3
20180421155923 18 133 9.7 22.5 0.00 0.00 1.47 71 1010.3
20180421155721 19 118 8.0 19.3 0.00 0.00 1.47 71 1010.3
20180421155520 19 146 9.7 19.3 0.00 0.00 1.47 72 1010.3
20180421155318 19 163 4.8 20.9 0.00 0.00 1.47 72 1010.3
20180421155118 19 136 6.4 20.9 0.00 0.00 1.47 72 1010.3
20180421154915 18 122 9.7 20.9 0.00 0.00 1.47 71 1010.3
20180421154714 19 60 3.2 14.5 0.00 0.00 1.47 71 1010.3
20180421154511 19 137 14.5 14.5 0.00 0.00 1.47 71 1010.4
20180421154309 18 137 11.3 19.3 0.00 0.00 1.47 72 1010.4
20180421154108 19 98 9.7 19.3 0.00 0.00 1.47 73 1010.4
20180421153907 18 175 4.8 19.3 0.00 0.00 1.47 73 1010.4
20180421153705 18 158 11.3 12.9 0.00 0.00 1.47 72 1010.4
20180421153503 18 122 6.4 12.9 0.00 0.00 1.47 71 1010.3
20180421153301 18 170 4.8 16.1 0.00 0.00 1.47 73 1010.2
20180421153100 18 116 4.8 16.1 0.00 0.00 1.47 73 1010.2
20180421152858 18 95 11.3 16.1 0.00 0.00 1.47 73 1010.2
20180421152657 18 104 4.8 19.3 0.00 0.00 1.47 74 1010.2
20180421152455 18 151 8.0 19.3 0.00 0.00 1.47 73 1010.2
20180421152254 18 77 4.8 16.1 0.00 0.00 1.47 73 1010.3
20180421152052 18 140 3.2 16.1 0.00 0.00 1.47 73 1010.3
20180421151851 18 122 17.7 16.1 0.00 0.00 1.47 74 1010.4
20180421151649 18 98 11.3 12.9 0.00 0.00 1.47 74 1010.4
20180421151448 18 111 6.4 12.9 0.00 0.00 1.47 74 1010.4
20180421151246 18 126 6.4 16.1 0.00 0.00 1.47 74 1010.4
20180421151044 18 163 11.3 16.1 0.00 0.00 1.47 74 1010.3
20180421150641 18 140 6.4 14.5 0.00 0.00 1.47 73 1010.3
20180421150440 18 39 1.6 14.5 0.00 0.00 1.47 74 1010.4
20180421150238 18 85 9.7 22.5 0.00 0.00 1.47 74 1010.3
20180421150037 18 127 3.2 22.5 0.00 0.00 1.47 71 1010.3
20180421145835 18 97 3.2 14.5 0.00 0.00 1.47 71 1010.3
20180421145633 18 113 4.8 14.5 0.00 0.00 1.47 71 1010.3
20180421145432 18 153 8.0 14.5 0.00 0.00 1.47 71 1010.3
20180421145230 18 43 11.3 20.9 0.00 0.00 1.47 71 1010.4
20180421145029 19 137 12.9 20.9 0.00 0.00 1.47 69 1010.4
20180421144827 19 19 9.7 20.9 0.00 0.00 1.47 68 1010.3
20180421144626 20 82 1.6 20.9 0.00 0.00 1.47 70 1010.4
20180421144424 20 71 17.7 20.9 0.00 0.00 1.47 66 1010.4
20180421144223 20 102 9.7 30.6 0.00 0.00 1.47 68 1010.5
20180421144021 20 12 4.8 30.6 0.00 0.00 1.47 68 1010.4
20180421143820 20 67 9.7 20.9 0.00 0.00 1.47 68 1010.5
20180421143618 19 81 8.0 20.9 0.00 0.00 1.47 72 1010.5
20180421143416 19 88 6.4 20.9 0.00 0.00 1.47 70 1010.5
20180421143215 19 73 16.1 24.1 0.00 0.00 1.47 72 1010.5
20180421143014 18 101 9.7 24.1 0.00 0.00 1.47 75 1010.5
20180421142812 18 156 9.7 24.1 0.00 0.00 1.47 76 1010.6
20180421142610 18 123 12.9 24.1 0.00 0.00 1.47 74 1010.6
20180421142408 18 104 17.7 24.1 0.00 0.00 1.47 74 1010.7
20180421142207 18 99 14.5 24.1 0.00 0.00 1.47 74 1010.7
20180421142005 18 127 14.5 24.1 0.00 0.00 1.47 73 1010.7
20180421141804 18 126 14.5 24.1 0.00 0.00 1.47 74 1010.7
20180421141602 18 113 12.9 24.1 0.00 0.00 1.47 75 1010.7
20180421141401 18 64 3.2 24.1 0.00 0.00 1.47 75 1010.7
20180421141159 18 157 9.7 29.0 0.00 0.00 1.47 73 1010.7
20180421140958 18 135 12.9 29.0 0.00 0.00 1.47 73 1010.6
20180421140756 19 80 16.1 16.1 0.00 0.00 1.47 75 1010.7
20180421140555 18 133 12.9 16.1 0.00 0.00 1.47 75 1010.6
20180421140353 19 123 6.4 16.1 0.00 0.00 1.47 78 1010.7
20180421140151 18 136 9.7 22.5 0.00 0.00 1.47 80 1010.7
20180421135950 18 185 9.7 22.5 0.00 0.00 1.47 80 1010.6
20180421135748 18 147 11.3 20.9 0.00 0.00 1.47 80 1010.6
20180421135546 18 327 6.4 20.9 0.00 0.00 1.47 82 1010.8
20180421135345 18 104 11.3 22.5 0.00 0.00 1.47 82 1010.8
20180421135143 18 168 6.4 22.5 0.00 0.00 1.47 85 1010.8
20180421134942 17 133 12.9 22.5 0.00 0.00 1.47 85 1010.8
20180421134740 17 136 6.4 16.1 0.00 0.00 1.47 85 1010.7
20180421134539 17 129 11.3 16.1 0.00 0.00 1.47 85 1010.7
20180421134337 17 150 9.7 16.1 0.00 0.00 1.47 86 1010.6
20180421134136 17 92 3.2 16.1 0.00 0.00 1.47 86 1010.6
20180421133934 17 146 6.4 16.1 0.00 0.00 1.47 86 1010.6
20180421133733 17 78 11.3 14.5 0.00 0.00 1.47 84 1010.6
20180421133531 17 123 3.2 14.5 0.00 0.00 1.47 89 1010.7
20180421133330 17 68 6.4 19.3 0.00 0.00 1.47 88 1010.6
20180421133128 17 123 8.0 19.3 0.00 0.00 1.47 87 1010.6
20180421132927 17 129 6.4 19.3 0.00 0.00 1.47 88 1010.8
20180421132725 17 116 11.3 25.7 0.00 0.00 1.47 88 1010.8
20180421132523 17 97 11.3 25.7 0.00 0.00 1.47 88 1010.7
20180421132322 17 120 22.5 19.3 0.00 0.00 1.47 90 1010.9
20180421132120 17 122 8.0 19.3 0.00 0.00 1.47 92 1011.0
20180421131918 16 142 8.0 19.3 0.00 0.00 1.47 93 1011.1
20180421131717 16 77 8.0 14.5 0.00 0.00 1.47 91 1011.0
20180421131515 16 130 3.2 14.5 0.00 0.00 1.47 92 1010.8
20180421131314 16 99 12.9 11.3 0.00 0.00 1.47 95 1010.9
20180421131112 16 101 4.8 11.3 0.00 0.00 1.47 95 1010.9
20180421130911 16 122 9.7 11.3 0.00 0.00 1.47 95 1011.1
20180421130710 16 144 4.8 14.5 0.00 0.00 1.47 95 1011.0
20180421130508 16 246 3.2 14.5 0.00 0.00 1.47 95 1011.1
20180421130306 15 116 8.0 14.5 0.00 0.00 1.47 95 1011.2
20180421130105 15 66 6.4 14.5 0.00 0.00 1.47 95 1011.1
20180421125903 15 136 9.7 14.5 0.00 0.00 1.47 95 1010.9
20180421125702 15 98 9.7 17.7 0.00 0.00 1.47 95 1010.7
20180421125500 15 25 3.2 17.7 0.00 0.00 1.47 95 1010.3
20180421125258 16 67 6.4 20.9 0.00 0.00 1.47 96 1010.3
20180421125057 15 147 9.7 20.9 0.00 0.00 1.47 96 1010.4
20180421124855 15 98 9.7 20.9 0.00 0.00 1.47 96 1010.5
20180421124653 15 82 11.3 22.5 0.00 0.00 1.47 96 1010.5
20180421124452 15 97 9.7 22.5 0.00 0.00 1.47 96 1010.7
20180421124250 15 33 8.0 22.5 0.00 0.00 1.47 96 1010.8
20180421124050 15 118 9.7 22.5 0.00 0.00 1.47 96 1010.7
20180421123847 15 88 14.5 27.4 0.00 0.00 1.47 96 1010.8
20180421123647 15 78 14.5 27.4 0.00 0.00 1.47 96 1011.1
20180421123444 15 98 12.9 27.4 0.00 0.00 1.47 96 1011.1
20180421123243 15 84 14.5 37.0 0.00 0.00 1.47 96 1011.0
20180421123041 15 97 16.1 37.0 0.00 0.00 1.47 97 1011.0
20180421122840 15 81 11.3 30.6 0.00 0.00 1.47 97 1011.1
20180421122638 15 137 11.3 30.6 0.00 0.00 1.47 97 1011.2
20180421122437 15 118 14.5 30.6 0.00 0.00 1.47 97 1011.3
20180421122235 15 116 9.7 19.3 0.00 0.00 1.47 98 1011.5
20180421122033 15 67 14.5 19.3 0.00 0.00 1.47 98 1011.5
20180421121832 15 113 8.0 17.7 0.00 0.00 1.47 98 1011.6
20180421121630 15 150 4.8 17.7 0.00 0.00 1.47 98 1011.7
20180421121429 15 71 8.0 17.7 0.00 0.00 1.47 98 1011.5
20180421121227 15 126 12.9 16.1 0.00 0.00 1.47 98 1011.4
20180421121026 15 119 9.7 16.1 0.00 0.00 1.47 98 1011.6
20180421120824 14 147 8.0 20.9 0.00 0.00 1.47 98 1011.5
20180421120622 15 156 9.7 20.9 0.00 0.00 1.47 98 1011.2
20180421120421 15 90 8.0 20.9 0.00 0.00 1.47 98 1011.1
20180421120219 14 130 11.3 24.1 0.00 0.00 1.47 98 1011.1
20180421120018 15 21 17.7 24.1 0.00 0.00 1.47 98 1011.2
20180421115816 15 106 4.8 19.3 0.00 0.00 1.47 98 1011.3
20180421115615 15 120 8.0 19.3 0.00 0.00 1.47 98 1011.5
20180421115413 15 105 12.9 19.3 0.00 0.00 1.47 98 1011.5
20180421115010 14 104 8.0 20.9 0.00 0.00 1.47 98 1012.0
20180421114809 14 56 8.0 22.5 0.00 0.00 1.47 98 1012.0
20180421114607 14 108 16.1 22.5 0.00 0.00 1.47 98 1012.1
20180421114406 14 109 12.9 22.5 0.00 0.00 1.47 98 1012.2
20180421114204 14 99 12.9 16.1 0.00 0.00 1.45 98 1012.3
20180421114002 14 57 12.9 16.1 0.00 0.00 1.45 98 1012.4
20180421113800 14 105 4.8 25.7 0.00 0.00 1.45 98 1012.5
20180421113559 14 113 11.3 25.7 0.00 0.00 1.45 98 1012.6
20180421113357 14 150 8.0 25.7 0.00 0.00 1.45 98 1012.6
20180421113156 14 123 9.7 22.5 0.00 0.00 1.42 98 1012.6
20180421112954 14 156 6.4 22.5 0.00 0.00 1.42 98 1012.5
20180421112753 14 39 8.0 22.5 0.00 0.00 1.40 98 1012.7
20180421112551 14 82 12.9 22.5 0.00 0.00 1.40 98 1012.5
20180421112350 14 67 3.2 22.5 0.00 0.00 1.40 98 1012.6
20180421112148 14 113 6.4 20.9 0.00 0.00 1.40 98 1012.6
20180421111947 14 136 9.7 20.9 0.00 0.00 1.37 98 1012.5
20180421111745 14 101 6.4 22.5 0.00 0.00 1.37 98 1012.6
20180421111544 14 112 8.0 22.5 0.00 0.00 1.37 99 1012.7
20180421111342 14 192 11.3 20.9 0.00 0.00 1.37 99 1012.6
20180421111140 14 116 8.0 20.9 0.00 0.00 1.37 99 1012.5
20180421110939 15 127 8.0 20.9 0.00 0.00 1.37 99 1012.5
20180421110738 14 132 9.7 24.1 0.00 0.00 1.37 99 1012.5
20180421110536 14 139 8.0 24.1 0.00 0.00 1.37 99 1012.5
20180421110334 14 91 9.7 14.5 0.00 0.00 1.35 99 1012.5
20180421110132 15 33 9.7 14.5 0.00 0.00 1.32 99 1012.6
20180421105931 15 119 6.4 14.5 0.00 0.00 1.32 99 1012.7
20180421105729 14 132 8.0 12.9 0.00 0.00 1.32 99 1012.6
20180421105528 14 120 9.7 12.9 0.00 0.00 1.30 99 1012.3
20180421105326 14 112 6.4 19.3 0.00 0.00 1.30 98 1012.2
20180421105125 15 158 6.4 19.3 0.00 0.00 1.30 98 1012.3
20180421104923 14 115 8.0 19.3 0.00 0.00 1.27 98 1012.3
20180421104722 14 84 6.4 11.3 0.00 0.00 1.27 98 1012.2
20180421104520 14 73 4.8 11.3 0.00 0.00 1.27 98 1012.4
20180421104319 14 108 6.4 9.7 0.00 0.00 1.27 98 1012.5
20180421104117 14 81 8.0 9.7 0.00 0.00 1.24 98 1012.6
20180421103916 15 21 6.4 9.7 0.00 0.00 1.24 98 1012.8
20180421103714 14 90 3.2 8.0 0.00 0.00 1.22 98 1012.9
20180421103512 14 109 3.2 8.0 0.00 0.00 1.22 98 1012.9
20180421103311 14 113 3.2 6.4 0.00 0.00 1.22 98 1012.9
20180421103109 15 137 4.8 6.4 0.00 0.00 1.22 98 1012.8
20180421102907 15 120 4.8 6.4 0.00 0.00 1.19 97 1012.8
20180421102706 14 111 3.2 4.8 0.00 0.00 1.19 97 1012.7
20180421102504 15 80 3.2 4.8 0.00 0.00 1.17 97 1012.8
20180421102305 14 105 3.2 4.8 0.00 0.00 1.14 97 1012.7
20180421102102 15 91 0.0 4.8 0.00 0.00 1.14 97 1012.7
20180421101900 15 85 0.0 4.8 0.00 0.00 1.12 97 1012.7
20180421101658 15 106 1.6 1.6 0.00 0.00 1.12 97 1012.6
20180421101457 15 115 1.6 1.6 0.00 0.00 1.09 97 1012.6
20180421101255 15 102 0.0 3.2 0.00 0.00 1.07 97 1012.6
20180421101054 15 102 0.0 3.2 0.00 0.00 1.07 97 1012.6
20180421100852 15 61 0.0 3.2 0.00 0.00 1.04 97 1012.7
20180421100651 15 108 0.0 3.2 0.00 0.00 1.02 97 1012.7
20180421100449 15 108 0.0 3.2 0.00 0.00 1.02 96 1012.7
20180421100247 15 142 1.6 4.8 0.00 0.00 0.99 96 1012.8
20180421100046 15 165 1.6 4.8 0.00 0.00 0.97 96 1012.8
20180421095844 15 151 1.6 4.8 0.00 0.00 0.94 96 1012.8
20180421095642 15 185 4.8 4.8 0.00 0.00 0.91 96 1012.8
20180421095441 15 177 1.6 4.8 0.00 0.00 0.91 96 1012.8
20180421095240 15 184 1.6 4.8 0.00 0.00 0.89 96 1012.7
20180421095038 15 203 4.8 4.8 0.00 0.00 0.89 96 1012.7
20180421094836 14 195 3.2 11.3 0.00 0.00 0.86 96 1012.6
20180421094635 14 247 1.6 11.3 0.00 0.00 0.86 96 1012.6
20180421094433 14 229 3.2 11.3 0.00 0.00 0.84 96 1012.6
20180421094232 14 202 4.8 12.9 0.00 0.00 0.81 96 1012.6
20180421094030 14 212 6.4 12.9 0.00 0.00 0.79 96 1012.7
20180421093829 14 198 9.7 17.7 0.00 0.00 0.76 96 1012.7
20180421093627 14 212 8.0 17.7 0.00 0.00 0.74 96 1012.6
20180421093426 14 216 4.8 17.7 0.00 0.00 0.71 96 1012.6
20180421093224 14 215 9.7 22.5 0.00 0.00 0.69 96 1012.6
20180421093023 15 196 9.7 22.5 0.00 0.00 0.66 95 1012.6
20180421092821 15 196 9.7 29.0 0.00 0.00 0.64 95 1012.5
20180421092619 15 196 9.7 29.0 0.00 0.00 0.61 95 1012.7
20180421092418 15 209 16.1 29.0 0.00 0.00 0.56 94 1012.7
20180421092216 15 161 20.9 12.9 0.00 0.00 0.53 93 1012.5
20180421092014 15 210 16.1 12.9 0.00 0.00 0.53 93 1011.9
20180421091820 15 191 9.7 8.0 0.00 0.00 0.53 91 1011.4
20180421091611 15 247 8.0 8.0 0.00 0.00 0.51 90 1011.2
20180421091410 15 250 8.0 8.0 0.00 0.00 0.51 90 1011.0
20180421091209 15 206 4.8 4.8 0.00 0.00 0.48 90 1010.8
20180421091007 15 136 3.2 4.8 0.00 0.00 0.46 89 1010.5
20180421090805 15 22 1.6 16.1 0.00 0.00 0.46 89 1010.2
20180421090604 15 95 0.0 16.1 0.00 0.00 0.43 89 1010.0
20180421090402 15 144 1.6 16.1 0.00 0.00 0.41 89 1010.0
20180421090201 15 116 8.0 14.5 0.00 0.00 0.41 89 1010.2
20180421085959 15 36 1.6 14.5 0.00 0.00 0.41 88 1010.3
20180421085758 15 168 3.2 20.9 0.00 0.00 0.41 88 1010.1
20180421085556 15 113 11.3 20.9 0.00 0.00 0.41 88 1009.6
20180421085355 15 130 4.8 20.9 0.00 0.00 0.41 87 1009.2
20180421085154 15 80 14.5 27.4 0.00 0.00 0.41 87 1008.9
20180421084951 15 57 0.0 27.4 0.00 0.00 0.41 86 1008.5
20180421084749 15 12 6.4 27.4 0.00 0.00 0.41 86 1008.1
20180421084548 15 67 16.1 27.4 0.00 0.00 0.41 86 1007.9
20180421084346 15 39 14.5 20.9 0.00 0.00 0.41 87 1007.8
20180421084145 15 94 20.9 20.9 0.00 0.00 0.41 87 1007.6
20180421083944 15 213 0.0 20.9 0.00 0.00 0.41 87 1007.6
20180421083742 15 209 12.9 22.5 0.00 0.00 0.41 88 1007.4
20180421083540 15 239 9.7 22.5 0.00 0.00 0.41 87 1007.5
20180421083339 15 95 9.7 22.5 0.00 0.00 0.41 87 1007.6
20180421083137 15 60 17.7 22.5 0.00 0.00 0.41 88 1007.6
20180421082936 15 2 6.4 22.5 0.00 0.00 0.41 88 1007.6
20180421082734 15 247 3.2 20.9 0.00 0.00 0.41 89 1007.7
20180421082533 15 307 3.2 20.9 0.00 0.00 0.41 89 1007.7
20180421082331 15 178 4.8 24.1 0.00 0.00 0.41 90 1007.7
20180421082129 15 42 12.9 24.1 0.00 0.00 0.41 89 1007.6
20180421081928 15 196 1.6 24.1 0.00 0.00 0.41 90 1007.7
20180421081726 15 271 9.7 27.4 0.00 0.00 0.41 90 1007.8
20180421081525 15 203 4.8 27.4 0.00 0.00 0.41 90 1007.9
20180421081324 15 2 16.1 32.2 0.00 0.00 0.41 89 1008.0
20180421081121 15 358 6.4 32.2 0.00 0.00 0.41 89 1008.2
20180421080920 15 46 11.3 32.2 0.00 0.00 0.41 89 1008.4
20180421080718 15 136 8.0 22.5 0.00 0.00 0.41 89 1008.6
20180421080517 15 47 12.9 22.5 0.00 0.00 0.41 89 1008.7
20180421080315 15 94 12.9 29.0 0.00 0.00 0.41 89 1008.8
20180421080114 15 137 14.5 29.0 0.00 0.00 0.41 88 1008.8
20180421075912 15 73 14.5 29.0 0.00 0.00 0.41 89 1008.8
20180421075509 15 130 8.0 35.4 0.00 0.00 0.41 89 1008.6
20180421075309 15 101 6.4 20.9 0.00 0.00 0.41 89 1008.5
20180421075106 15 255 9.7 20.9 0.00 0.00 0.41 90 1008.6
20180421074905 15 81 11.3 20.9 0.00 0.00 0.41 90 1008.6
20180421074703 15 92 16.1 27.4 0.00 0.00 0.41 90 1008.6
20180421074502 15 75 9.7 27.4 0.00 0.00 0.41 90 1008.6
20180421074300 15 87 8.0 30.6 0.00 0.00 0.41 91 1008.6
20180421074058 15 153 6.4 30.6 0.00 0.00 0.41 90 1008.6
20180421073856 15 54 12.9 30.6 0.00 0.00 0.41 90 1008.5
20180421073655 15 351 3.2 32.2 0.00 0.00 0.41 91 1008.6
20180421073453 15 56 6.4 32.2 0.00 0.00 0.41 90 1008.7
20180421073252 15 109 11.3 30.6 0.00 0.00 0.41 91 1008.7
20180421072849 15 354 19.3 30.6 0.00 0.00 0.41 91 1008.7
20180421072647 15 70 11.3 38.6 0.00 0.00 0.41 92 1008.7
20180421072446 14 22 11.3 38.6 0.00 0.00 0.41 92 1008.8
20180421072244 14 90 20.9 30.6 0.00 0.00 0.41 93 1008.7
20180421072043 14 358 9.7 30.6 0.00 0.00 0.41 93 1008.7
20180421071640 14 11 9.7 32.2 0.00 0.00 0.41 94 1008.8
20180421071438 15 91 17.7 32.2 0.00 0.00 0.41 94 1008.9
20180421071236 14 102 11.3 30.6 0.00 0.00 0.41 95 1009.0
20180421071035 14 70 11.3 30.6 0.00 0.00 0.41 95 1009.0
20180421070833 14 111 8.0 35.4 0.00 0.00 0.41 95 1009.0
20180421070632 14 98 6.4 35.4 0.00 0.00 0.41 95 1009.1
20180421070430 14 84 9.7 35.4 0.00 0.00 0.41 95 1008.9
20180421070228 14 73 20.9 29.0 0.00 0.00 0.41 95 1008.8
20180421070028 14 126 11.3 29.0 0.00 0.00 0.41 95 1008.8
20180421065826 14 150 8.0 22.5 0.00 0.00 0.41 96 1008.7
20180421065624 15 116 11.3 22.5 0.00 0.00 0.41 96 1008.7
20180421065422 14 88 12.9 22.5 0.00 0.00 0.41 96 1008.7
20180421065221 14 60 4.8 32.2 0.00 0.00 0.41 96 1008.6
20180421065019 14 64 3.2 32.2 0.00 0.00 0.41 96 1008.6
20180421064818 14 67 22.5 32.2 0.00 0.00 0.41 96 1008.6
20180421064616 14 172 1.6 32.2 0.00 0.00 0.41 96 1008.6
20180421064415 14 196 6.4 32.2 0.00 0.00 0.41 96 1008.6
20180421064213 14 98 16.1 19.3 0.00 0.00 0.41 96 1008.5
20180421064011 14 257 8.0 19.3 0.00 0.00 0.41 97 1008.5
20180421063810 15 85 6.4 20.9 0.00 0.00 0.41 97 1008.5
20180421063609 14 229 12.9 20.9 0.00 0.00 0.41 97 1008.7
20180421063406 14 26 0.0 20.9 0.00 0.00 0.41 97 1008.7
20180421063205 15 77 12.9 17.7 0.00 0.00 0.41 97 1008.8
20180421063003 14 35 4.8 17.7 0.00 0.00 0.41 97 1008.8
20180421062802 14 120 8.0 20.9 0.00 0.00 0.41 97 1009.0
20180421062600 14 46 8.0 20.9 0.00 0.00 0.41 97 1009.2
20180421062359 14 59 14.5 20.9 0.00 0.00 0.41 96 1009.2
20180421062157 14 52 8.0 25.7 0.00 0.00 0.41 96 1009.3
20180421061956 14 42 9.7 25.7 0.00 0.00 0.41 96 1009.4
20180421061754 14 64 6.4 20.9 0.00 0.00 0.41 96 1009.2
20180421061553 14 74 9.7 20.9 0.00 0.00 0.41 96 1009.2
20180421061351 14 139 4.8 20.9 0.00 0.00 0.41 96 1009.2
20180421061150 14 49 4.8 22.5 0.00 0.00 0.41 96 1009.3
20180421060948 14 111 6.4 22.5 0.00 0.00 0.41 96 1009.2
20180421060746 14 73 12.9 25.7 0.00 0.00 0.41 97 1009.1
20180421060545 14 73 20.9 25.7 0.00 0.00 0.41 97 1009.1
20180421060343 14 330 4.8 19.3 0.00 0.00 0.41 97 1009.2
20180421060142 14 71 17.7 19.3 0.00 0.00 0.41 97 1009.2
20180421055940 15 352 3.2 19.3 0.00 0.00 0.41 97 1009.0
20180421055738 15 67 6.4 17.7 0.00 0.00 0.41 97 1008.9
20180421055537 14 167 4.8 17.7 0.00 0.00 0.41 97 1009.0
20180421055335 15 358 6.4 24.1 0.00 0.00 0.41 97 1009.1
20180421055134 15 327 3.2 24.1 0.00 0.00 0.41 97 1009.1
20180421054932 14 264 3.2 24.1 0.00 0.00 0.41 97 1009.1
20180421054731 15 254 6.4 24.1 0.00 0.00 0.38 97 1009.1
20180421054530 14 68 9.7 24.1 0.00 0.00 0.38 97 1009.1
20180421054328 14 106 9.7 27.4 0.00 0.00 0.38 97 1009.2
20180421054126 15 42 9.7 27.4 0.00 0.00 0.38 97 1009.2
20180421053925 15 122 4.8 27.4 0.00 0.00 0.38 97 1009.2
20180421053723 15 50 6.4 19.3 0.00 0.00 0.38 98 1009.2
20180421053522 15 92 4.8 19.3 0.00 0.00 0.38 97 1009.2
20180421053320 15 15 9.7 17.7 0.00 0.00 0.38 97 1009.1
20180421053118 15 258 4.8 17.7 0.00 0.00 0.38 98 1009.2
20180421052917 15 84 9.7 17.7 0.00 0.00 0.38 98 1009.1
20180421052715 15 7 4.8 20.9 0.00 0.00 0.38 98 1009.1
20180421052513 15 326 1.6 20.9 0.00 0.00 0.38 98 1009.0
20180421052312 15 68 4.8 20.9 0.00 0.00 0.38 98 1009.1
20180421052110 15 81 8.0 20.9 0.00 0.00 0.38 98 1009.2
20180421051909 15 15 4.8 20.9 0.00 0.00 0.38 97 1009.3
20180421051707 15 105 9.7 19.3 0.00 0.00 0.38 98 1009.3
20180421051506 15 105 8.0 19.3 0.00 0.00 0.36 98 1009.4
20180421051304 15 47 9.7 19.3 0.00 0.00 0.36 98 1009.5
20180421051103 15 102 11.3 19.3 0.00 0.00 0.36 98 1009.5
20180421050901 15 23 8.0 19.3 0.00 0.00 0.36 98 1009.4
20180421050700 15 82 9.7 17.7 0.00 0.00 0.36 98 1009.4
20180421050458 15 248 4.8 17.7 0.00 0.00 0.36 98 1009.4
20180421050257 15 74 8.0 19.3 0.00 0.00 0.33 98 1009.3
20180421050055 15 95 6.4 19.3 0.00 0.00 0.33 98 1009.4
20180421045853 15 11 6.4 19.3 0.00 0.00 0.33 98 1009.4
20180421045652 15 182 6.4 17.7 0.00 0.00 0.33 98 1009.4
20180421045450 15 4 4.8 17.7 0.00 0.00 0.30 98 1009.4
20180421045249 15 116 6.4 17.7 0.00 0.00 0.30 98 1009.4
20180421045047 15 39 6.4 17.7 0.00 0.00 0.30 98 1009.3
20180421044845 15 56 6.4 24.1 0.00 0.00 0.28 98 1009.3
20180421044644 15 136 6.4 24.1 0.00 0.00 0.28 98 1009.3
20180421044442 15 358 3.2 24.1 0.00 0.00 0.28 98 1009.3
20180421044241 15 84 9.7 17.7 0.00 0.00 0.28 98 1009.4
20180421044039 14 88 11.3 17.7 0.00 0.00 0.25 98 1009.5
20180421043838 15 101 9.7 17.7 0.00 0.00 0.25 98 1009.6
20180421043636 15 151 8.0 17.7 0.00 0.00 0.25 98 1009.7
20180421043435 15 111 9.7 17.7 0.00 0.00 0.25 98 1009.8
20180421043233 15 120 8.0 19.3 0.00 0.00 0.23 98 1009.8
20180421043032 15 113 8.0 19.3 0.00 0.00 0.23 98 1009.8
20180421042830 14 101 9.7 16.1 0.00 0.00 0.23 98 1009.9
20180421042629 15 122 12.9 16.1 0.00 0.00 0.20 98 1010.0
20180421042427 14 104 11.3 16.1 0.00 0.00 0.20 97 1010.0
20180421042225 15 139 8.0 11.3 0.00 0.00 0.20 97 1010.0
20180421042024 15 111 8.0 11.3 0.00 0.00 0.18 97 1010.0
20180421041823 15 104 8.0 12.9 0.00 0.00 0.18 97 1010.1
20180421041620 15 98 6.4 12.9 0.00 0.00 0.18 97 1010.1
20180421041419 15 132 8.0 12.9 0.00 0.00 0.15 97 1010.1
20180421041217 15 115 8.0 16.1 0.00 0.00 0.15 97 1010.1
20180421041016 15 156 8.0 16.1 0.00 0.00 0.15 97 1010.1
20180421040814 15 143 6.4 11.3 0.00 0.00 0.15 97 1010.0
20180421040613 15 63 8.0 11.3 0.00 0.00 0.15 97 1010.0
20180421040411 15 130 4.8 11.3 0.00 0.00 0.15 97 1010.0
20180421040210 15 122 4.8 9.7 0.00 0.00 0.15 97 1010.0
20180421040006 15 94 9.7 9.7 0.00 0.00 0.15 97 1010.2
20180421035805 15 84 4.8 9.7 0.00 0.00 0.13 97 1010.2
20180421035603 15 123 4.8 9.7 0.00 0.00 0.13 97 1010.3
20180421035402 15 78 6.4 9.7 0.00 0.00 0.13 96 1010.3
20180421035200 15 28 6.4 9.7 0.00 0.00 0.13 96 1010.3
20180421034958 15 47 6.4 9.7 0.00 0.00 0.10 96 1010.4
20180421034757 15 92 4.8 9.7 0.00 0.00 0.10 96 1010.4
20180421034555 15 106 4.8 9.7 0.00 0.00 0.10 96 1010.4
20180421034353 15 75 4.8 9.7 0.00 0.00 0.08 95 1010.4
20180421034152 15 78 6.4 6.4 0.00 0.00 0.08 95 1010.5
20180421033950 15 61 6.4 6.4 0.00 0.00 0.05 95 1010.6
20180421033749 15 78 4.8 4.8 0.00 0.00 0.05 94 1010.6
20180421033547 15 68 4.8 4.8 0.00 0.00 0.05 94 1010.7
20180421033346 15 91 3.2 4.8 0.00 0.00 0.05 93 1010.8
20180421033144 15 104 3.2 4.8 0.00 0.00 0.05 93 1010.8
20180421032943 15 95 3.2 4.8 0.00 0.00 0.05 93 1010.8
20180421032741 15 98 0.0 3.2 0.00 0.00 0.05 93 1010.8
20180421032540 15 98 0.0 3.2 0.00 0.00 0.05 93 1010.8
20180421032338 15 98 0.0 4.8 0.00 0.00 0.03 93 1010.8
20180421032137 15 98 0.0 4.8 0.00 0.00 0.03 93 1010.9
20180421031935 15 98 1.6 4.8 0.00 0.00 0.03 93 1010.9
20180421031734 15 106 3.2 8.0 0.00 0.00 0.03 93 1011.0
20180421031532 15 136 1.6 8.0 0.00 0.00 0.03 93 1011.0
20180421031330 15 180 1.6 11.3 0.00 0.00 0.03 93 1011.0
20180421031130 15 143 3.2 11.3 0.00 0.00 0.03 93 1011.0
20180421030927 15 202 3.2 11.3 0.00 0.00 0.03 93 1011.0
20180421030725 15 192 4.8 12.9 0.00 0.00 0.03 93 1011.0
20180421030527 15 192 6.4 12.9 0.00 0.00 0.03 93 1011.0
20180421030322 15 161 6.4 12.9 0.00 0.00 0.00 93 1011.1
20180421030121 15 170 6.4 12.9 0.00 0.00 0.00 93 1011.2
20180421025919 15 163 9.7 12.9 0.00 0.00 0.00 93 1011.2
20180421025718 15 146 6.4 12.9 0.00 0.00 0.00 93 1011.3
20180421025516 15 163 8.0 12.9 0.00 0.00 0.00 93 1011.2
20180421025315 15 144 4.8 9.7 0.00 0.00 0.00 92 1011.2
20180421025113 15 151 9.7 9.7 0.00 0.00 0.00 92 1011.2
20180421024912 15 188 8.0 9.7 0.00 0.00 0.00 92 1011.1
20180421024710 15 168 9.7 11.3 0.00 0.00 0.00 92 1011.1
20180421024509 15 147 6.4 11.3 0.00 0.00 0.00 92 1011.1
20180421024307 15 181 11.3 6.4 0.00 0.00 0.00 92 1011.1
20180421024105 15 157 6.4 6.4 0.00 0.00 0.00 92 1011.1
20180421023904 15 149 4.8 6.4 0.00 0.00 0.00 92 1011.1
20180421023702 15 163 4.8 6.4 0.00 0.00 0.00 92 1011.0
20180421023500 15 139 4.8 6.4 0.00 0.00 0.00 92 1011.0
20180421023259 15 171 4.8 8.0 0.00 0.00 0.00 92 1010.9
20180421023057 15 160 4.8 8.0 0.00 0.00 0.00 93 1011.0
20180421022856 15 188 4.8 8.0 0.00 0.00 0.00 93 1011.0
20180421022654 15 154 3.2 4.8 0.00 0.00 0.00 93 1010.9
20180421022453 15 170 4.8 4.8 0.00 0.00 0.00 93 1011.0
20180421022251 15 195 3.2 9.7 0.00 0.00 0.00 93 1010.9
20180421022050 15 198 1.6 9.7 0.00 0.00 0.00 93 1011.0
20180421021848 15 194 4.8 8.0 0.00 0.00 0.00 93 1011.0
20180421021647 15 213 3.2 8.0 0.00 0.00 0.00 93 1011.1
20180421021445 15 198 6.4 8.0 0.00 0.00 0.00 93 1011.1
20180421021244 15 196 4.8 6.4 0.00 0.00 0.00 93 1011.1
20180421021042 15 194 6.4 6.4 0.00 0.00 0.00 93 1011.1
20180421020840 15 170 4.8 9.7 0.00 0.00 0.00 93 1011.0
20180421020639 15 188 4.8 9.7 0.00 0.00 0.00 93 1010.9
20180421020437 15 175 4.8 9.7 0.00 0.00 0.00 93 1011.0
20180421020236 15 184 4.8 9.7 0.00 0.00 0.00 93 1011.0
20180421020035 15 220 4.8 9.7 0.00 0.00 0.00 93 1011.0
20180421015832 15 212 4.8 11.3 0.00 0.00 0.00 93 1011.0
20180421015631 15 227 8.0 11.3 0.00 0.00 0.00 93 1011.1
20180421015429 15 217 8.0 11.3 0.00 0.00 0.00 93 1011.0
20180421015228 15 227 3.2 12.9 0.00 0.00 0.00 94 1011.1
20180421015026 15 206 6.4 12.9 0.00 0.00 0.00 93 1011.1
20180421014825 15 223 6.4 12.9 0.00 0.00 0.00 94 1011.1
20180421014623 15 206 8.0 12.9 0.00 0.00 0.00 94 1011.1
20180421014422 15 213 8.0 12.9 0.00 0.00 0.00 94 1011.1
20180421014220 15 219 9.7 14.5 0.00 0.00 0.00 94 1011.1
20180421014019 15 172 8.0 14.5 0.00 0.00 0.00 93 1011.1
20180421013817 15 248 11.3 14.5 0.00 0.00 0.00 93 1011.1
20180421013616 15 198 9.7 14.5 0.00 0.00 0.00 93 1011.1
20180421013414 15 171 11.3 14.5 0.00 0.00 0.00 93 1011.1
20180421013212 15 167 6.4 19.3 0.00 0.00 0.00 93 1011.0
20180421013011 15 206 9.7 19.3 0.00 0.00 0.00 93 1010.8
20180421012809 15 219 8.0 19.3 0.00 0.00 0.00 92 1010.8
20180421012607 15 225 6.4 19.3 0.00 0.00 0.00 92 1010.8
20180421012406 15 291 8.0 19.3 0.00 0.00 0.00 92 1010.9
20180421012204 15 213 16.1 14.5 0.00 0.00 0.00 92 1010.9
20180421012004 15 212 11.3 14.5 0.00 0.00 0.00 92 1010.9
20180421011801 15 230 6.4 11.3 0.00 0.00 0.00 91 1010.8
20180421011600 15 191 6.4 11.3 0.00 0.00 0.00 91 1010.9
20180421011358 16 241 8.0 11.3 0.00 0.00 0.00 90 1010.8
20180421011157 16 220 6.4 6.4 0.00 0.00 0.00 90 1010.8
20180421010955 16 240 4.8 6.4 0.00 0.00 0.00 90 1010.7
20180421010754 16 230 1.6 9.7 0.00 0.00 0.00 90 1010.7
20180421010552 16 170 3.2 9.7 0.00 0.00 0.00 90 1010.7
20180421010351 16 157 4.8 9.7 0.00 0.00 0.00 90 1010.6
20180421010149 16 194 4.8 8.0 0.00 0.00 0.00 90 1010.7
20180421005947 16 208 4.8 8.0 0.00 0.00 0.00 90 1010.6
20180421005746 16 240 3.2 11.3 0.00 0.00 0.00 90 1010.6
20180421005544 16 223 6.4 11.3 0.00 0.00 0.00 90 1010.7
20180421005344 15 222 6.4 17.7 0.00 0.00 0.00 90 1010.6
20180421005141 16 216 6.4 17.7 0.00 0.00 0.00 89 1010.6
20180421004939 16 201 9.7 17.7 0.00 0.00 0.00 89 1010.7
20180421004738 16 203 6.4 14.5 0.00 0.00 0.00 89 1010.6
20180421004536 16 209 9.7 14.5 0.00 0.00 0.00 88 1010.6
20180421004335 16 196 9.7 12.9 0.00 0.00 0.00 88 1010.6
20180421004133 16 210 8.0 12.9 0.00 0.00 0.00 87 1010.6
20180421003932 16 202 8.0 12.9 0.00 0.00 0.00 86 1010.6
20180421003730 16 195 6.4 11.3 0.00 0.00 0.00 86 1010.5
20180421003529 16 164 6.4 11.3 0.00 0.00 0.00 86 1010.4
20180421003327 16 156 8.0 11.3 0.00 0.00 0.00 86 1010.3
20180421003126 16 126 6.4 11.3 0.00 0.00 0.00 85 1010.3
20180421002924 16 164 8.0 11.3 0.00 0.00 0.00 85 1010.3
20180421002722 16 154 6.4 16.1 0.00 0.00 0.00 85 1010.3
20180421002521 16 158 8.0 16.1 0.00 0.00 0.00 85 1010.2
20180421002319 16 150 8.0 12.9 0.00 0.00 0.00 85 1010.2
20180421002118 16 137 8.0 12.9 0.00 0.00 0.00 84 1010.3
20180421001916 16 151 8.0 12.9 0.00 0.00 0.00 84 1010.2
20180421001714 16 174 9.7 16.1 0.00 0.00 0.00 83 1010.2
20180421001513 16 160 6.4 16.1 0.00 0.00 0.00 83 1010.4
20180421001311 16 168 9.7 12.9 0.00 0.00 0.00 83 1010.5
20180421001110 16 140 9.7 12.9 0.00 0.00 0.00 82 1010.4
20180421000908 16 154 12.9 12.9 0.00 0.00 0.00 81 1010.4
20180421000708 16 163 9.7 11.3 0.00 0.00 0.00 80 1010.4
20180421000505 16 182 9.7 11.3 0.00 0.00 0.00 79 1010.2
20180421000304 17 170 8.0 9.7 0.00 0.00 0.00 78 1010.2
20180421000102 17 185 4.8 9.7 0.00 0.00 0.00 77 1010.2
20180420235901 17 177 6.4 9.7 0.00 0.00 0.00 77 1010.1
20180420235659 17 184 8.0 3.2 0.00 0.00 0.00 76 1010.0
20180420235458 17 154 6.4 3.2 0.00 0.00 0.00 76 1009.9
20180420235256 17 206 0.0 4.8 0.00 0.00 0.00 76 1009.8
20180420235054 17 177 1.6 4.8 0.00 0.00 0.00 76 1009.8
20180420234853 17 181 1.6 4.8 0.00 0.00 0.00 76 1009.7
20180420234651 17 185 3.2 3.2 0.00 0.00 0.00 75 1009.8
20180420234449 17 150 3.2 3.2 0.00 0.00 0.00 75 1009.8
20180420234248 17 178 3.2 1.6 0.00 0.00 0.00 75 1009.7
20180420234046 17 177 0.0 1.6 0.00 0.00 0.00 75 1009.6
20180420233643 17 70 0.0 0.0 0.00 0.00 0.00 75 1009.7
20180420233442 17 70 0.0 0.0 0.00 0.00 0.00 75 1009.6
20180420233240 17 66 0.0 4.8 0.00 0.00 0.00 76 1009.5
20180420233039 17 66 0.0 4.8 0.00 0.00 0.00 76 1009.5
20180420232837 17 66 0.0 0.0 0.00 0.00 0.00 76 1009.5
20180420232636 17 66 0.0 0.0 0.00 0.00 0.00 76 1009.4
20180420232434 17 113 0.0 0.0 0.00 0.00 0.00 76 1009.3
20180420232233 17 113 0.0 0.0 0.00 0.00 0.00 76 1009.2
20180420232031 17 113 0.0 0.0 0.00 0.00 0.00 76 1009.2
20180420231830 17 113 0.0 0.0 0.00 0.00 0.00 76 1009.2
20180420231628 17 113 0.0 0.0 0.00 0.00 0.00 76 1009.1
20180420231426 17 113 0.0 0.0 0.00 0.00 0.00 76 1009.0
20180420231224 17 113 0.0 4.8 0.00 0.00 0.00 76 1009.0
20180420231023 17 113 0.0 4.8 0.00 0.00 0.00 76 1009.0
20180420230821 17 113 0.0 1.6 0.00 0.00 0.00 76 1009.0
20180420230620 17 268 1.6 1.6 0.00 0.00 0.00 76 1008.9
20180420230418 17 233 0.0 1.6 0.00 0.00 0.00 76 1008.9
20180420230217 18 209 0.0 0.0 0.00 0.00 0.00 76 1009.0
20180420230015 17 187 0.0 0.0 0.00 0.00 0.00 76 1009.1
20180420225814 18 187 0.0 0.0 0.00 0.00 0.00 76 1009.1
20180420225612 17 187 0.0 0.0 0.00 0.00 0.00 76 1009.2
20180420225411 17 187 0.0 0.0 0.00 0.00 0.00 76 1009.1
20180420225209 18 187 0.0 3.2 0.00 0.00 0.00 76 1009.2
20180420225008 17 187 0.0 3.2 0.00 0.00 0.00 76 1009.1
20180420224806 18 223 0.0 0.0 0.00 0.00 0.00 76 1009.1
20180420224604 18 223 0.0 0.0 0.00 0.00 0.00 76 1009.2
20180420224403 18 254 0.0 0.0 0.00 0.00 0.00 76 1009.2
20180420224202 18 254 0.0 3.2 0.00 0.00 0.00 76 1009.2
20180420224000 18 254 0.0 3.2 0.00 0.00 0.00 76 1009.1
20180420223758 18 254 0.0 1.6 0.00 0.00 0.00 76 1009.1
20180420223556 18 178 0.0 1.6 0.00 0.00 0.00 77 1009.2
20180420223355 18 206 0.0 1.6 0.00 0.00 0.00 77 1009.2
20180420223153 18 215 1.6 1.6 0.00 0.00 0.00 77 1009.2
20180420222952 18 217 1.6 1.6 0.00 0.00 0.00 77 1009.2
20180420222750 18 202 1.6 4.8 0.00 0.00 0.00 77 1009.2
20180420222549 18 88 0.0 4.8 0.00 0.00 0.00 77 1009.2
20180420222347 18 77 0.0 4.8 0.00 0.00 0.00 76 1009.3
20180420222146 18 46 1.6 4.8 0.00 0.00 0.00 76 1009.3
20180420221944 18 99 4.8 4.8 0.00 0.00 0.00 77 1009.3
20180420221743 18 161 1.6 4.8 0.00 0.00 0.00 77 1009.3
20180420221541 18 26 0.0 4.8 0.00 0.00 0.00 76 1009.4
20180420221340 18 153 0.0 3.2 0.00 0.00 0.00 76 1009.4
20180420221138 18 94 3.2 3.2 0.00 0.00 0.00 76 1009.4
20180420220936 18 87 0.0 3.2 0.00 0.00 0.00 76 1009.5
20180420220735 18 66 0.0 0.0 0.00 0.00 0.00 76 1009.5
20180420220533 18 66 0.0 0.0 0.00 0.00 0.00 76 1009.5
20180420220331 18 81 0.0 3.2 0.00 0.00 0.00 76 1009.5
20180420220130 18 81 0.0 3.2 0.00 0.00 0.00 76 1009.5
20180420215928 18 81 0.0 3.2 0.00 0.00 0.00 77 1009.6
20180420215727 18 81 0.0 1.6 0.00 0.00 0.00 77 1009.6
20180420215525 18 281 0.0 1.6 0.00 0.00 0.00 77 1009.6
20180420215324 18 281 0.0 3.2 0.00 0.00 0.00 77 1009.6
20180420215123 18 74 0.0 3.2 0.00 0.00 0.00 77 1009.6
20180420214921 18 74 0.0 3.2 0.00 0.00 0.00 77 1009.6
20180420214719 18 74 0.0 3.2 0.00 0.00 0.00 77 1009.7
20180420214518 18 75 0.0 3.2 0.00 0.00 0.00 77 1009.6
20180420214316 18 81 0.0 3.2 0.00 0.00 0.00 78 1009.7
20180420214115 18 91 1.6 3.2 0.00 0.00 0.00 78 1009.7
20180420213913 18 300 0.0 3.2 0.00 0.00 0.00 78 1009.7
20180420213711 18 300 0.0 1.6 0.00 0.00 0.00 78 1009.6
20180420213510 18 324 3.2 1.6 0.00 0.00 0.00 78 1009.7
20180420213308 18 309 0.0 6.4 0.00 0.00 0.00 78 1009.7
20180420213106 18 309 0.0 6.4 0.00 0.00 0.00 79 1009.8
20180420212905 18 309 0.0 6.4 0.00 0.00 0.00 79 1009.8
20180420212703 18 309 0.0 9.7 0.00 0.00 0.00 79 1009.8
20180420212502 18 337 4.8 9.7 0.00 0.00 0.00 79 1009.8
20180420212300 18 329 0.0 6.4 0.00 0.00 0.00 78 1009.9
20180420212059 18 337 4.8 6.4 0.00 0.00 0.00 78 1010.0
20180420211857 18 320 3.2 6.4 0.00 0.00 0.00 78 1010.0
20180420211656 18 317 4.8 8.0 0.00 0.00 0.00 77 1010.0
20180420211454 18 316 4.8 8.0 0.00 0.00 0.00 76 1010.0
20180420211253 18 277 6.4 4.8 0.00 0.00 0.00 75 1009.9
20180420211051 18 319 6.4 4.8 0.00 0.00 0.00 75 1009.8
20180420210850 19 358 4.8 4.8 0.00 0.00 0.00 74 1009.9
20180420210648 19 320 0.0 8.0 0.00 0.00 0.00 75 1009.8
20180420210446 18 320 0.0 8.0 0.00 0.00 0.00 75 1009.7
20180420210245 19 295 3.2 11.3 0.00 0.00 0.00 75 1009.6
20180420210043 19 264 1.6 11.3 0.00 0.00 0.00 75 1009.5
20180420205842 18 210 4.8 8.0 0.00 0.00 0.00 75 1009.4
20180420205639 19 241 4.8 8.0 0.00 0.00 0.00 74 1009.3
20180420205437 19 315 11.3 8.0 0.00 0.00 0.00 74 1009.4
20180420205236 19 323 3.2 4.8 0.00 0.00 0.00 74 1009.5
20180420205034 19 125 3.2 4.8 0.00 0.00 0.00 73 1009.9
20180420204833 19 92 4.8 9.7 0.00 0.00 0.00 72 1010.2
20180420204631 19 63 0.0 9.7 0.00 0.00 0.00 72 1010.5
20180420204430 19 157 0.0 9.7 0.00 0.00 0.00 72 1010.7
20180420204228 19 168 0.0 20.9 0.00 0.00 0.00 72 1010.8
20180420204027 19 206 8.0 20.9 0.00 0.00 0.00 72 1010.9
20180420203825 19 203 6.4 19.3 0.00 0.00 0.00 71 1011.0
20180420203624 19 195 12.9 19.3 0.00 0.00 0.00 70 1011.1
20180420203422 19 216 14.5 19.3 0.00 0.00 0.00 69 1011.1
20180420203221 20 220 14.5 20.9 0.00 0.00 0.00 68 1011.0
20180420203019 20 255 9.7 20.9 0.00 0.00 0.00 68 1011.0
20180420202817 20 219 11.3 24.1 0.00 0.00 0.00 67 1011.1
20180420202616 20 220 12.9 24.1 0.00 0.00 0.00 66 1011.2
20180420202414 20 229 16.1 24.1 0.00 0.00 0.00 66 1011.1
20180420202212 20 226 16.1 25.7 0.00 0.00 0.00 64 1011.1
20180420202012 20 226 19.3 25.7 0.00 0.00 0.00 63 1011.1
20180420201809 21 248 16.1 20.9 0.00 0.00 0.00 61 1011.1
20180420201608 21 229 19.3 20.9 0.00 0.00 0.00 58 1011.1
20180420201407 21 222 14.5 20.9 0.00 0.00 0.00 57 1011.0
20180420201205 21 201 9.7 22.5 0.00 0.00 0.00 57 1011.0
20180420201003 21 182 9.7 22.5 0.00 0.00 0.00 56 1010.9
20180420200802 21 181 11.3 24.1 0.00 0.00 0.00 56 1010.8
20180420200600 21 163 11.3 24.1 0.00 0.00 0.00 55 1010.8
20180420200359 21 156 16.1 24.1 0.00 0.00 0.00 55 1010.7
20180420200157 21 139 14.5 17.7 0.00 0.00 0.00 55 1010.6
20180420195956 21 171 11.3 17.7 0.00 0.00 0.00 55 1010.5
20180420195754 21 160 9.7 19.3 0.00 0.00 0.00 55 1010.5
20180420195552 21 178 8.0 19.3 0.00 0.00 0.00 55 1010.5
20180420195351 21 177 12.9 19.3 0.00 0.00 0.00 55 1010.4
20180420195149 22 178 9.7 19.3 0.00 0.00 0.00 55 1010.3
20180420194948 21 144 8.0 19.3 0.00 0.00 0.00 56 1010.3
20180420194746 21 196 6.4 22.5 0.00 0.00 0.00 56 1010.3
20180420194544 22 160 9.7 22.5 0.00 0.00 0.00 56 1010.2
20180420194343 22 244 14.5 12.9 0.00 0.00 0.00 55 1010.2
20180420194141 22 199 8.0 12.9 0.00 0.00 0.00 53 1010.1
20180420193940 22 246 4.8 12.9 0.00 0.00 0.00 51 1010.1
20180420193739 22 208 8.0 6.4 0.00 0.00 0.00 50 1010.1
20180420193537 22 129 3.2 6.4 0.00 0.00 0.00 50 1009.9
20180420193335 22 112 3.2 11.3 0.00 0.00 0.00 50 1009.8
20180420193134 22 167 4.8 11.3 0.00 0.00 0.00 50 1009.6
20180420192932 22 87 4.8 11.3 0.00 0.00 0.00 49 1009.5
20180420192731 22 120 4.8 12.9 0.00 0.00 0.00 49 1009.5
20180420192530 22 108 4.8 12.9 0.00 0.00 0.00 49 1009.4
20180420192327 22 61 8.0 12.9 0.00 0.00 0.00 49 1009.4
20180420192126 22 80 6.4 12.9 0.00 0.00 0.00 49 1009.4
20180420191924 22 95 4.8 12.9 0.00 0.00 0.00 50 1009.3
20180420191723 22 54 4.8 8.0 0.00 0.00 0.00 50 1009.3
20180420191521 22 126 3.2 8.0 0.00 0.00 0.00 49 1009.3
20180420191319 22 57 1.6 9.7 0.00 0.00 0.00 50 1009.4